Amateur Radio Satellites - All Passes

Search period start: 21 May 2013 19:05
Search period end: 22 May 2013 19:05
Location: Niverville, 49.6028°N, 97.0419°W

Satellite Date Start Highest point End Downlink Frequencies (MHz)
Time Altitude Azimuth
AO-7 21 May 19:06:44 19:13:13 25° 270° (W) 19:19:47 29.400 - 29.500 MHz
JAS-1B 21 May 19:10:46 19:19:04 45° 63° (ENE) 19:26:10 435.800 - 435.900 CW/SSB
RS-15 21 May 19:19:43 19:31:35 67° 319° (NW) 19:42:57 29.354 - 29.394 USB, Beacon 29.352 USB
SO-67 21 May 19:23:14 19:26:02 22° 66° (ENE) 19:28:50 435.3500 MHz FM
Hamsat 21 May 19:30:33 19:34:45 79° 75° (ENE) 19:39:02 145.90 MHz
JAS-2 21 May 19:46:38 19:50:44 15° 43° (NE) 19:54:48 435.800 - 435.900 CW/SSB, 435.910 FM
STRAND 1 21 May 20:00:37 20:05:47 72° 103° (ESE) 20:10:55 ?
UOSAT-12 21 May 20:07:54 20:12:20 45° 42° (NE) 20:16:46 437.025 FM, 437.400 FM
HO-68 21 May 20:30:56 20:37:06 33° 55° (NE) 20:43:17 435.675 MHz FM
OPAL 21 May 20:54:42 20:57:25 15° 50° (NE) 21:00:07 ?
SO-67 21 May 20:56:07 20:59:21 32° 264° (W) 21:02:37 435.3500 MHz FM
JAS-1B 21 May 21:00:37 21:09:32 54° 260° (W) 21:17:10 435.800 - 435.900 CW/SSB
Hamsat 21 May 21:09:40 21:11:26 12° 273° (W) 21:13:12 145.90 MHz
Oscar 11 21 May 21:26:12 21:29:51 27° 64° (ENE) 21:33:31 145.825 FM, Beacon 2401.500 USB
JAS-2 21 May 21:26:39 21:34:05 50° 64° (ENE) 21:41:31 435.800 - 435.900 CW/SSB, 435.910 FM
RS-15 21 May 21:35:46 21:46:27 39° 350° (N) 21:56:44 29.354 - 29.394 USB, Beacon 29.352 USB
STRAND 1 21 May 21:40:45 21:44:30 21° 303° (WNW) 21:48:15 ?
UOSAT-12 21 May 21:48:18 21:52:25 33° 241° (WSW) 21:56:31 437.025 FM, 437.400 FM
HO-68 21 May 22:17:19 22:24:24 66° 256° (WSW) 22:31:32 435.675 MHz FM
OPAL 21 May 22:30:19 22:35:29 72° 69° (ENE) 22:40:38 ?
KITSAT 1 21 May 22:47:20 22:53:01 22° 103° (ESE) 22:58:44 435.175 FM
JAS-1B 21 May 22:58:44 23:01:34 12° 279° (W) 23:04:17 435.800 - 435.900 CW/SSB
Oscar 11 21 May 23:01:57 23:05:58 37° 263° (W) 23:10:01 145.825 FM, Beacon 2401.500 USB
JAS-2 21 May 23:11:43 23:19:07 47° 264° (W) 23:26:37 435.800 - 435.900 CW/SSB, 435.910 FM
RS-15 21 May 23:51:22 00:02:12 45° 23° (NNE) 00:12:36 29.354 - 29.394 USB, Beacon 29.352 USB
HO-68 22 May 00:10:19 00:13:32 13° 277° (W) 00:16:45 435.675 MHz FM
OPAL 22 May 00:11:16 00:14:54 19° 268° (W) 00:18:32 ?
KITSAT 1 22 May 00:39:12 00:47:16 82° 124° (SE) 00:55:25 435.175 FM
AO-40 22 May 01:26:32 03:17:52 34° 206° (SSW) 08:26:30 Beacon 2401.320
MaSat-1 22 May 01:39:05 01:43:37 19° 105° (ESE) 01:47:41 437.345 MHz
Oscar 19 22 May 01:55:02 01:56:46 12° 84° (E) 01:58:30 437.125 CW, 437.150 USB
RS-15 22 May 02:04:38 02:15:55 87° 233° (SW) 02:26:49 29.354 - 29.394 USB, Beacon 29.352 USB
Oscar 16 22 May 02:32:11 02:36:39 28° 94° (E) 02:41:04 437.025 USB, Beacon 2401.1428
KITSAT 1 22 May 02:36:06 02:43:31 38° 329° (NNW) 02:51:01 435.175 FM
AO-27 22 May 02:39:09 02:43:24 25° 92° (E) 02:47:38 436.795 MHz FM
ITAMSAT 1 22 May 02:45:55 02:50:21 27° 93° (E) 02:54:46 435.822 SSB
MaSat-1 22 May 03:18:28 03:25:23 85° 120° (ESE) 03:30:55 437.345 MHz
Uribyol 2 22 May 03:26:46 03:31:59 61° 102° (ESE) 03:37:09 436.500 FM
Oscar 19 22 May 03:31:50 03:37:03 76° 104° (ESE) 03:42:12 437.125 CW, 437.150 USB
Uosat F 22 May 03:36:20 03:38:27 13° 86° (E) 03:40:34 435.120 FM
AO-Echo 22 May 03:42:40 03:46:50 30° 95° (E) 03:51:03 ?
Oscar 16 22 May 04:11:16 04:16:14 47° 293° (WNW) 04:21:09 437.025 USB, Beacon 2401.1428
TMSAT-1 22 May 04:17:20 04:20:55 18° 88° (E) 04:24:29 436.925 FM
RS-15 22 May 04:18:07 04:26:40 27° 258° (WSW) 04:35:07 29.354 - 29.394 USB, Beacon 29.352 USB
AO-27 22 May 04:18:10 04:23:16 55° 291° (WNW) 04:28:21 436.795 MHz FM
ITAMSAT 1 22 May 04:25:05 04:30:07 49° 292° (WNW) 04:35:08 435.822 SSB
KITSAT 1 22 May 04:35:03 04:41:28 25° 358° (N) 04:47:55 435.175 FM
Gurwin Techsat 1B 22 May 04:37:48 04:42:44 37° 96° (E) 04:47:38 435.225 FM
ISS 22 May 04:42:35 04:45:46 44° 151° (SSE) 04:48:59 145.800 FM
MaSat-1 22 May 05:02:49 05:08:00 25° 316° (NW) 05:12:20 437.345 MHz
Uribyol 2 22 May 05:06:58 05:11:06 24° 301° (WNW) 05:15:14 436.500 FM
AO-7 22 May 05:08:41 05:14:51 22° 88° (E) 05:20:58 29.400 - 29.500 MHz
Oscar 19 22 May 05:12:12 05:15:51 20° 303° (WNW) 05:19:30 437.125 CW, 437.150 USB
Uosat F 22 May 05:13:00 05:18:04 83° 105° (ESE) 05:23:06 435.120 FM
AO-Echo 22 May 05:21:23 05:25:45 38° 293° (WNW) 05:30:10 ?
STRAND 1 22 May 05:43:14 05:47:25 27° 61° (ENE) 05:51:38 ?
TMSAT-1 22 May 05:56:08 06:01:28 76° 287° (WNW) 06:06:46 436.925 FM
Saudisat 1A 22 May 05:59:54 06:03:01 18° 112° (ESE) 06:06:09 436.775 MHz
AO-27 22 May 06:00:22 06:01:44 11° 311° (NW) 06:03:05 436.795 MHz FM
Gurwin Techsat 1B 22 May 06:17:51 06:22:44 38° 295° (WNW) 06:27:36 435.225 FM
ISS 22 May 06:19:06 06:22:26 66° 350° (N) 06:25:47 145.800 FM
KITSAT 1 22 May 06:32:17 06:39:34 34° 27° (NNE) 06:46:50 435.175 FM
Uosat F 22 May 06:53:00 06:56:17 18° 304° (NW) 06:59:33 435.120 FM
AO-7 22 May 07:00:24 07:08:49 86° 110° (ESE) 07:17:13 29.400 - 29.500 MHz
PCSat 22 May 07:07:08 07:09:20 13° 102° (ESE) 07:11:32 145.825 MHz
Hamsat 22 May 07:14:53 07:16:19 11° 86° (E) 07:17:44 145.90 MHz
STRAND 1 22 May 07:21:24 07:26:21 52° 260° (W) 07:31:22 ?
Saudisat 1A 22 May 07:37:37 07:42:12 76° 312° (NW) 07:46:51 436.775 MHz
TMSAT-1 22 May 07:37:41 07:40:34 15° 307° (NW) 07:43:27 436.925 FM
Sapphire 22 May 07:37:52 07:41:54 22° 108° (ESE) 07:45:56 437.095 MHz 1200 baud AX-25 AFSK
ISS 22 May 07:56:01 07:59:22 67° 10° (N) 08:02:43 145.800 FM
SO-67 22 May 08:19:16 08:21:30 16° 90° (E) 08:23:43 435.3500 MHz FM
Oscar 10/S400 22 May 08:22:22 11:17:39 37° 254° (WSW) 17:59:52 145.825 - 145.975 CW/USB, Beacon 145.810 USB
KITSAT 1 22 May 08:27:56 08:36:07 85° 52° (NE) 08:44:17 435.175 FM
JAS-1B 22 May 08:42:17 08:47:56 35° 94° (E) 08:53:06 435.800 - 435.900 CW/SSB
PCSat 22 May 08:46:25 08:51:48 72° 122° (ESE) 08:57:14 145.825 MHz
Hamsat 22 May 08:48:39 08:53:02 89° 284° (WNW) 08:57:25 145.90 MHz
AO-7 22 May 08:53:55 09:00:48 30° 312° (NW) 09:07:41 29.400 - 29.500 MHz
SO-50 22 May 08:59:54 09:03:22 20° 113° (ESE) 09:06:48 436.795 FM
Saudisat 1A 22 May 09:19:07 09:22:39 21° 333° (NNW) 09:26:12 436.775 MHz
Sapphire 22 May 09:19:23 09:24:48 73° 308° (NW) 09:30:15 437.095 MHz 1200 baud AX-25 AFSK
ISS 22 May 09:32:49 09:36:01 43° 210° (SSW) 09:39:14 145.800 FM
HO-68 22 May 09:41:09 09:46:10 20° 88° (E) 09:51:09 435.675 MHz FM
SO-67 22 May 09:51:46 09:55:13 44° 288° (WNW) 09:58:38 435.3500 MHz FM
JAS-2 22 May 10:17:45 10:23:40 28° 88° (E) 10:29:00 435.800 - 435.900 CW/SSB, 435.910 FM
MaSat-1 22 May 10:18:38 10:20:51 14° 33° (NNE) 10:22:48 437.345 MHz
KITSAT 1 22 May 10:24:11 10:30:41 27° 254° (WSW) 10:37:10 435.175 FM
Hamsat 22 May 10:26:26 10:28:28 13° 303° (WNW) 10:30:30 145.90 MHz
PCSat 22 May 10:31:04 10:35:45 29° 323° (NW) 10:40:28 145.825 MHz
JAS-1B 22 May 10:32:54 10:38:51 43° 298° (WNW) 10:44:12 435.800 - 435.900 CW/SSB
OPAL 22 May 10:38:16 10:40:09 12° 88° (E) 10:42:01 ?
SO-50 22 May 10:38:46 10:43:33 72° 312° (NW) 10:48:16 436.795 FM
Oscar 11 22 May 10:45:28 10:49:18 29° 95° (E) 10:53:06 145.825 FM, Beacon 2401.500 USB
AO-7 22 May 10:49:00 10:50:55 11° 337° (NNW) 10:52:49 29.400 - 29.500 MHz
Saudisat 1A 22 May 11:02:02 11:04:03 13° 357° (N) 11:06:04 436.775 MHz
Sapphire 22 May 11:05:03 11:09:11 22° 330° (NNW) 11:13:20 437.095 MHz 1200 baud AX-25 AFSK
HO-68 22 May 11:27:39 11:34:52 88° 108° (ESE) 11:42:03 435.675 MHz FM
MaSat-1 22 May 11:59:59 12:03:41 76° 242° (WSW) 12:06:37 437.345 MHz
JAS-2 22 May 12:02:15 12:09:22 66° 291° (WNW) 12:15:38 435.800 - 435.900 CW/SSB, 435.910 FM
UOSAT-12 22 May 12:03:59 12:07:44 26° 116° (ESE) 12:11:32 437.025 FM, 437.400 FM
OPAL 22 May 12:14:49 12:19:54 80° 107° (ESE) 12:24:52 ?
Oscar 16 22 May 12:18:01 12:20:03 12° 50° (NE) 12:22:05 437.025 USB, Beacon 2401.1428
PCSat 22 May 12:18:26 12:21:03 13° 349° (NNW) 12:23:41 145.825 MHz
SO-50 22 May 12:21:22 12:24:57 21° 334° (NNW) 12:28:31 436.795 FM
Oscar 11 22 May 12:21:36 12:25:35 35° 293° (WNW) 12:29:32 145.825 FM, Beacon 2401.500 USB
AO-27 22 May 12:26:39 12:28:05 11° 49° (NE) 12:29:31 436.795 MHz FM
ITAMSAT 1 22 May 12:32:47 12:34:46 12° 50° (NE) 12:36:44 435.822 SSB
Saudisat 1A 22 May 12:42:23 12:45:33 18° 22° (NNE) 12:48:41 436.775 MHz
Sapphire 22 May 12:52:33 12:54:46 12° 356° (N) 12:57:00 437.095 MHz 1200 baud AX-25 AFSK
Uribyol 2 22 May 13:11:17 13:15:22 24° 59° (ENE) 13:19:29 436.500 FM
Oscar 19 22 May 13:15:01 13:19:23 28° 61° (ENE) 13:23:45 437.125 CW, 437.150 USB
HO-68 22 May 13:16:13 13:21:47 25° 309° (NW) 13:27:21 435.675 MHz FM
AO-Echo 22 May 13:25:50 13:26:50 11° 52° (NE) 13:27:50 ?
UOSAT-12 22 May 13:43:13 13:47:40 53° 316° (NW) 13:52:10 437.025 FM, 437.400 FM
JAS-2 22 May 13:48:35 13:53:00 18° 314° (NW) 13:57:10 435.800 - 435.900 CW/SSB, 435.910 FM
Oscar 16 22 May 13:53:19 13:58:27 62° 70° (ENE) 14:03:36 437.025 USB, Beacon 2401.1428
OPAL 22 May 13:54:47 13:58:13 19° 307° (NW) 14:01:38 ?
AO-27 22 May 14:01:30 14:06:33 56° 69° (ENE) 14:11:39 436.795 MHz FM
PCSat 22 May 14:03:59 14:06:55 14° 15° (NNE) 14:09:50 145.825 MHz
SO-50 22 May 14:05:13 14:07:19 13° 358° (N) 14:09:24 436.795 FM
ITAMSAT 1 22 May 14:08:12 14:13:17 62° 70° (ENE) 14:18:26 435.822 SSB
Saudisat 1A 22 May 14:21:42 14:26:13 55° 44° (NE) 14:30:40 436.775 MHz
AO-7 22 May 14:24:38 14:29:03 16° 33° (NNE) 14:33:28 29.400 - 29.500 MHz
Gurwin Techsat 1B 22 May 14:26:09 14:29:22 17° 54° (NE) 14:32:35 435.225 FM
Sapphire 22 May 14:36:58 14:40:32 17° 23° (NNE) 14:44:06 437.095 MHz 1200 baud AX-25 AFSK
Uribyol 2 22 May 14:49:22 14:54:30 61° 258° (WSW) 14:59:40 436.500 FM
Uosat F 22 May 14:53:05 14:57:19 29° 62° (ENE) 15:01:35 435.120 FM
Oscar 19 22 May 14:53:27 14:58:30 51° 260° (W) 15:03:36 437.125 CW, 437.150 USB
AO-Echo 22 May 14:59:59 15:04:45 62° 71° (ENE) 15:09:26 ?
UOSAT-12 22 May 15:25:45 15:28:50 18° 339° (NNW) 15:31:55 437.025 FM, 437.400 FM
Oscar 16 22 May 15:34:19 15:38:15 22° 269° (W) 15:42:13 437.025 USB, Beacon 2401.1428
TMSAT-1 22 May 15:42:05 15:47:01 41° 66° (ENE) 15:51:59 436.925 FM
AO-27 22 May 15:42:19 15:46:27 24° 268° (W) 15:50:37 436.795 MHz FM
SO-50 22 May 15:46:25 15:49:44 19° 23° (NNE) 15:53:00 436.795 FM
PCSat 22 May 15:47:06 15:52:03 34° 40° (NE) 15:56:58 145.825 MHz
ITAMSAT 1 22 May 15:49:20 15:53:15 22° 269° (W) 15:57:12 435.822 SSB
Saudisat 1A 22 May 16:01:55 16:05:39 25° 244° (WSW) 16:09:19 436.775 MHz
Gurwin Techsat 1B 22 May 16:03:17 16:08:36 84° 74° (ENE) 16:13:57 435.225 FM
AO-7 22 May 16:12:06 16:19:51 46° 57° (ENE) 16:27:38 29.400 - 29.500 MHz
Sapphire 22 May 16:20:00 16:25:18 50° 47° (NE) 16:30:34 437.095 MHz 1200 baud AX-25 AFSK
Uosat F 22 May 16:31:10 16:35:57 46° 261° (W) 16:40:48 435.120 FM
RS-15 22 May 16:33:03 16:43:42 40° 109° (ESE) 16:53:57 29.354 - 29.394 USB, Beacon 29.352 USB
AO-Echo 22 May 16:40:35 16:43:59 19° 269° (W) 16:47:20 ?
UOSAT-12 22 May 17:08:49 17:10:49 13° 3° (N) 17:12:49 437.025 FM, 437.400 FM
TMSAT-1 22 May 17:22:19 17:27:04 33° 265° (W) 17:31:52 436.925 FM
SO-50 22 May 17:26:41 17:31:16 62° 46° (NE) 17:35:44 436.795 FM
PCSat 22 May 17:30:27 17:35:47 57° 241° (WSW) 17:41:04 145.825 MHz
JAS-1B 22 May 17:44:12 17:48:44 16° 46° (NE) 17:52:56 435.800 - 435.900 CW/SSB
Gurwin Techsat 1B 22 May 17:46:06 17:49:18 16° 273° (W) 17:52:30 435.225 FM
Sapphire 22 May 18:03:44 18:08:36 34° 247° (WSW) 18:13:26 437.095 MHz 1200 baud AX-25 AFSK
AO-7 22 May 18:04:32 18:12:34 53° 259° (WSW) 18:20:42 29.400 - 29.500 MHz
Hamsat 22 May 18:13:06 18:15:35 16° 59° (ENE) 18:18:06 145.90 MHz
UOSAT-12 22 May 18:49:05 18:52:40 22° 28° (NNE) 18:56:15 437.025 FM, 437.400 FM
SO-67 22 May 19:00:19 19:02:01 13° 61° (ENE) 19:03:43 435.3500 MHz FM

Developed and maintained by Chris Peat, Heavens-Above GmbH. Please read the updated FAQ before sending e-mail. Imprint. DLR
